FW4679 Weather Reports


Display with metric or nautical units.
time (UTC)temp
F
wind
direction
speed
MPH
gust
MPH
rain 1hr
in
rain 24hr
in
rain mn
in
humidity
%
barometer
mb
20260904231554 76 355 1.0 5.0 0.00 0.02 0.02 64 1016.5
20260904230107 77 335 1.0 5.0 0.00 0.02 0.02 62 1016.2
20260904224552 78 335 2.0 5.0 0.00 0.02 0.02 60 1016.2
20260904223059 78 317 1.0 6.0 0.00 0.02 0.02 59 1016.3
20260904221552 78 315 4.0 9.0 0.00 0.02 0.02 57 1016.2
20260904220107 78 308 3.0 11.0 0.00 0.02 0.02 57 1016.1
20260904214550 79 298 2.0 8.0 0.00 0.02 0.02 57 1016.0
20260904213050 79 277 1.0 5.0 0.00 0.02 0.02 58 1016.1
20260904211549 79 296 1.0 7.0 0.00 0.02 0.02 58 1016.1
20260904210050 78 294 2.0 8.0 0.00 0.02 0.02 58 1016.4
20260904204551 78 327 3.0 8.0 0.00 0.03 0.02 58 1016.3
20260904203048 79 17 4.0 10.0 0.00 0.03 0.02 57 1016.5
20260904201554 79 310 3.0 10.0 0.00 0.03 0.02 56 1016.5
20260904200055 79 64 2.0 10.0 0.00 0.03 0.02 57 1016.8
20260904194549 78 303 4.0 11.0 0.00 0.03 0.02 56 1016.9
20260904193046 79 318 6.0 11.0 0.00 0.03 0.02 56 1017.2
20260904191546 79 320 4.0 10.0 0.01 0.03 0.02 56 1017.2
20260904190045 79 36 3.0 9.0 0.01 0.03 0.02 55 1017.3
20260904184605 80 304 1.0 6.0 0.01 0.03 0.02 54 1017.3
20260904183045 81 327 0.0 4.0 0.01 0.03 0.02 54 1017.4
20260904181542 80 5 1.0 6.0 0.00 0.02 0.01 55 1017.6
20260904180041 79 309 3.0 11.0 0.00 0.02 0.01 55 1017.7
20260904174609 79 316 9.0 15.0 0.00 0.02 0.01 53 1018.0
20260904173042 79 329 8.0 17.0 0.00 0.02 0.01 54 1017.8
20260904171535 78 290 5.0 14.0 0.00 0.02 0.01 58 1017.9
20260904170044 78 326 6.0 13.0 0.00 0.02 0.01 59 1018.2
20260904164529 77 334 8.0 13.0 0.00 0.02 0.01 60 1018.1
20260904163039 77 261 3.0 8.0 0.00 0.02 0.01 65 1018.2
20260904161529 75 298 4.0 10.0 0.00 0.02 0.01 67 1018.2
20260904160027 75 326 3.0 10.0 0.00 0.02 0.01 67 1018.3
20260904154525 75 327 4.0 11.0 0.00 0.02 0.01 66 1018.3
20260904153026 76 350 4.0 15.0 0.00 0.02 0.01 68 1018.3
20260904151522 75 330 2.0 10.0 0.00 0.02 0.01 69 1018.2
20260904150029 74 360 1.0 8.0 0.00 0.02 0.01 72 1018.2
20260904144518 73 283 5.0 9.0 0.00 0.02 0.01 70 1018.4
20260904143016 73 320 5.0 10.0 0.00 0.02 0.01 71 1018.2
20260904141515 72 303 4.0 9.0 0.00 0.02 0.01 73 1018.5
20260904140014 72 316 2.0 9.0 0.00 0.02 0.01 74 1018.5
20260904134512 71 292 5.0 11.0 0.00 0.02 0.01 74 1018.4
20260904133013 71 316 3.0 11.0 0.00 0.02 0.01 75 1018.1
20260904131510 70 32 2.0 6.0 0.00 0.02 0.01 78 1018.0
20260904130015 69 304 3.0 9.0 0.00 0.02 0.01 80 1018.2
20260904124509 69 235 0.0 6.0 0.00 0.02 0.01 81 1018.2
20260904123008 69 222 2.0 5.0 0.00 0.02 0.01 82 1018.3
20260904121506 68 240 1.0 3.0 0.00 0.02 0.01 82 1018.1
20260904120009 68 220 2.0 4.0 0.00 0.02 0.01 83 1018.1
20260904114506 68 268 2.0 4.0 0.00 0.02 0.01 86 1018.0
20260904113002 68 269 0.0 3.0 0.00 0.02 0.01 88 1018.0
20260904111505 68 281 2.0 7.0 0.00 0.02 0.01 89 1018.0
20260904110058 69 232 1.0 3.0 0.00 0.02 0.01 90 1017.8
20260904104558 69 232 2.0 5.0 0.00 0.02 0.01 90 1017.6
20260904103102 69 221 0.0 2.0 0.00 0.02 0.01 90 1017.6
20260904101556 69 221 1.0 4.0 0.00 0.02 0.01 90 1017.4
20260904100056 69 250 2.0 4.0 0.00 0.02 0.01 90 1017.4
20260904094553 69 249 0.0 4.0 0.00 0.03 0.01 90 1017.3
20260904093100 69 249 1.0 4.0 0.00 0.03 0.01 90 1017.2
20260904091553 70 140 1.0 3.0 0.00 0.03 0.01 90 1017.4
20260904090051 70 140 0.0 4.0 0.00 0.03 0.01 90 1017.2
20260904084551 70 86 1.0 3.0 0.00 0.03 0.01 90 1017.1
20260904083050 70 71 1.0 3.0 0.00 0.03 0.01 90 1017.0
20260904081552 69 71 0.0 4.0 0.00 0.03 0.01 90 1016.8
20260904080048 70 70 1.0 3.0 0.01 0.03 0.01 90 1016.5
20260904074548 70 70 0.0 2.0 0.01 0.03 0.01 90 1016.4
20260904073055 70 70 0.0 3.0 0.01 0.03 0.01 90 1016.1
20260904071547 70 70 0.0 2.0 0.01 0.03 0.01 90 1016.2
20260904070045 70 70 1.0 3.0 0.00 0.02 0.00 90 1016.3
20260904064544 71 70 0.0 2.0 0.00 0.02 0.00 90 1016.3
20260904063045 71 70 1.0 2.0 0.00 0.02 0.00 90 1016.2
20260904061541 71 70 0.0 1.0 0.00 0.02 0.00 90 1016.2
20260904060040 71 70 0.0 2.0 0.00 0.02 0.00 90 1016.4
20260904054540 71 70 0.0 3.0 0.00 0.02 0.00 90 1016.4
20260904053038 72 70 1.0 3.0 0.00 0.02 0.00 90 1016.5
20260904051538 72 70 1.0 3.0 0.00 0.02 0.00 90 1016.7
20260904050035 72 70 1.0 3.0 0.00 0.02 0.00 90 1016.7
20260904044531 72 70 0.0 2.0 0.00 0.02 0.00 90 1016.9
20260904043027 72 70 1.0 3.0 0.00 0.02 0.00 90 1016.9
20260904041523 73 70 0.0 8.0 0.00 0.02 0.00 89 1016.6
20260904040018 73 238 3.0 5.0 0.00 0.02 0.00 89 1017.3
20260904034522 73 279 2.0 4.0 0.00 0.02 0.02 88 1017.1
20260904033029 74 280 0.0 1.0 0.00 0.02 0.02 88 1016.3
20260904031517 74 280 3.0 4.0 0.00 0.02 0.02 87 1016.5
20260904030016 74 219 1.0 3.0 0.00 0.02 0.02 86 1016.5
20260904024517 74 219 0.0 1.0 0.00 0.02 0.02 86 1016.5
20260904023014 74 219 0.0 2.0 0.00 0.02 0.02 86 1016.3
20260904021514 75 219 0.0 2.0 0.00 0.02 0.02 86 1016.5
20260904020014 75 219 0.0 2.0 0.00 0.02 0.02 86 1017.0
20260904014514 75 219 0.0 2.0 0.00 0.02 0.02 85 1017.0
20260904013018 75 219 1.0 3.0 0.00 0.02 0.02 85 1016.9
20260904011515 75 219 1.0 3.0 0.00 0.02 0.02 85 1016.9
20260904010012 75 219 2.0 5.0 0.00 0.02 0.02 85 1017.2
20260904004512 75 229 2.0 6.0 0.00 0.02 0.02 85 1017.1
20260904003012 76 219 3.0 5.0 0.00 0.02 0.02 84 1016.6
20260904001510 76 202 2.0 4.0 0.00 0.02 0.02 83 1016.7
20260904000011 77 202 2.0 3.0 0.00 0.02 0.02 81 1016.6
20260903234510 77 202 0.0 1.0 0.00 0.02 0.02 81 1016.6
20260903233009 78 202 1.0 4.0 0.00 0.02 0.02 81 1016.7